| time (UTC) | temp F | wind direction | speed MPH | gust MPH | rain 1hr in | rain 24hr in | rain mn in | humidity % | barometer mb |
| 20260508213110 | 49 | 180 | 0.0 | 0.0 | 0.00 | 0.00 | 0.00 | 82 | 1014.1 |
| 20260508211524 | 50 | 179 | 0.0 | 0.0 | 0.00 | 0.00 | 0.00 | 80 | 1014.1 |
| 20260508210120 | 50 | 182 | 0.0 | 0.0 | 0.00 | 0.00 | 0.00 | 79 | 1014.0 |
| 20260508204536 | 51 | 182 | 0.0 | 0.0 | 0.00 | 0.00 | 0.00 | 78 | 1013.7 |
| 20260508203130 | 51 | 212 | 0.0 | 0.0 | 0.00 | 0.00 | 0.00 | 77 | 1013.7 |
| 20260508201602 | 53 | 211 | 0.0 | 0.0 | 0.00 | 0.00 | 0.00 | 74 | 1013.5 |
| 20260508200008 | 54 | 190 | 0.0 | 1.0 | 0.00 | 0.00 | 0.00 | 70 | 1013.4 |
| 20260508194601 | 56 | 249 | 0.0 | 6.0 | 0.00 | 0.01 | 0.00 | 66 | 1013.3 |
| 20260508193018 | 57 | 138 | 0.0 | 3.0 | 0.00 | 0.01 | 0.00 | 66 | 1013.0 |
| 20260508191601 | 58 | 150 | 3.0 | 7.0 | 0.00 | 0.01 | 0.00 | 61 | 1012.9 |
| 20260508190031 | 59 | 201 | 4.0 | 8.0 | 0.00 | 0.01 | 0.00 | 60 | 1012.6 |
| 20260508184610 | 59 | 199 | 2.0 | 6.0 | 0.00 | 0.01 | 0.00 | 59 | 1012.3 |
| 20260508183035 | 59 | 132 | 2.0 | 3.0 | 0.00 | 0.01 | 0.00 | 59 | 1012.2 |
| 20260508181625 | 60 | 113 | 0.0 | 3.0 | 0.00 | 0.01 | 0.00 | 59 | 1012.0 |
| 20260508180042 | 61 | 163 | 0.0 | 2.0 | 0.00 | 0.01 | 0.00 | 59 | 1011.9 |
| 20260508174501 | 61 | 219 | 0.0 | 3.0 | 0.00 | 0.01 | 0.00 | 57 | 1011.7 |
| 20260508173051 | 62 | 282 | 0.0 | 6.0 | 0.00 | 0.01 | 0.00 | 54 | 1011.6 |
| 20260508171633 | 62 | 306 | 1.0 | 7.0 | 0.00 | 0.01 | 0.00 | 52 | 1011.4 |
| 20260508170054 | 63 | 272 | 1.0 | 7.0 | 0.00 | 0.01 | 0.00 | 50 | 1011.5 |
| 20260508164504 | 63 | 243 | 1.0 | 10.0 | 0.00 | 0.01 | 0.00 | 49 | 1011.3 |
| 20260508163055 | 63 | 300 | 2.0 | 11.0 | 0.00 | 0.01 | 0.00 | 47 | 1011.3 |
| 20260508161511 | 64 | 312 | 4.0 | 9.0 | 0.00 | 0.01 | 0.00 | 46 | 1011.2 |
| 20260508160111 | 65 | 32 | 3.0 | 8.0 | 0.00 | 0.01 | 0.00 | 48 | 1011.2 |
| 20260508154522 | 64 | 288 | 4.0 | 12.0 | 0.00 | 0.02 | 0.00 | 48 | 1011.3 |
| 20260508153122 | 65 | 312 | 2.0 | 9.0 | 0.00 | 0.02 | 0.00 | 46 | 1011.2 |
| 20260508151544 | 65 | 302 | 3.0 | 12.0 | 0.00 | 0.02 | 0.00 | 47 | 1011.2 |
| 20260508150127 | 67 | 327 | 2.0 | 6.0 | 0.00 | 0.02 | 0.00 | 45 | 1011.2 |
| 20260508144546 | 65 | 327 | 1.0 | 11.0 | 0.00 | 0.02 | 0.00 | 45 | 1011.4 |
| 20260508143004 | 65 | 336 | 3.0 | 9.0 | 0.00 | 0.02 | 0.00 | 45 | 1011.4 |
| 20260508141621 | 66 | 331 | 3.0 | 10.0 | 0.00 | 0.02 | 0.00 | 43 | 1011.4 |
| 20260508140017 | 66 | 348 | 4.0 | 10.0 | 0.00 | 0.02 | 0.00 | 41 | 1011.4 |
| 20260508134619 | 68 | 292 | 2.0 | 10.0 | 0.00 | 0.02 | 0.00 | 40 | 1011.4 |
| 20260508133013 | 68 | 311 | 4.0 | 10.0 | 0.00 | 0.02 | 0.00 | 42 | 1011.6 |
| 20260508131601 | 68 | 28 | 0.0 | 4.0 | 0.00 | 0.02 | 0.00 | 41 | 1011.6 |
| 20260508130021 | 67 | 316 | 1.0 | 6.0 | 0.00 | 0.02 | 0.00 | 39 | 1011.8 |
| 20260508124610 | 68 | 75 | 0.0 | 3.0 | 0.00 | 0.02 | 0.00 | 39 | 1012.0 |
| 20260508123033 | 67 | 40 | 1.0 | 5.0 | 0.00 | 0.02 | 0.00 | 42 | 1012.1 |
| 20260508121622 | 67 | 46 | 2.0 | 11.0 | 0.00 | 0.02 | 0.00 | 43 | 1012.1 |
| 20260508120039 | 67 | 300 | 3.0 | 7.0 | 0.00 | 0.02 | 0.00 | 46 | 1012.1 |
| 20260508114507 | 68 | 325 | 2.0 | 8.0 | 0.00 | 0.02 | 0.00 | 43 | 1012.1 |
| 20260508113106 | 66 | 281 | 2.0 | 7.0 | 0.00 | 0.02 | 0.00 | 43 | 1012.2 |
| 20260508111517 | 66 | 211 | 0.0 | 3.0 | 0.00 | 0.02 | 0.00 | 46 | 1012.2 |
| 20260508110106 | 67 | 303 | 0.0 | 2.0 | 0.00 | 0.02 | 0.00 | 44 | 1012.4 |
| 20260508104529 | 67 | 277 | 0.0 | 3.0 | 0.00 | 0.02 | 0.00 | 50 | 1012.6 |
| 20260508103109 | 66 | 87 | 1.0 | 3.0 | 0.00 | 0.02 | 0.00 | 53 | 1012.8 |
| 20260508101529 | 64 | 325 | 0.0 | 2.0 | 0.00 | 0.02 | 0.00 | 57 | 1013.0 |
| 20260508100106 | 62 | 286 | 0.0 | 2.0 | 0.00 | 0.02 | 0.00 | 59 | 1013.1 |
| 20260508094526 | 61 | 296 | 0.0 | 2.0 | 0.00 | 0.02 | 0.00 | 61 | 1013.3 |
| 20260508093115 | 59 | 340 | 0.0 | 2.0 | 0.00 | 0.02 | 0.00 | 68 | 1013.6 |
| 20260508091536 | 58 | 87 | 0.0 | 1.0 | 0.00 | 0.02 | 0.00 | 65 | 1013.9 |
| 20260508090118 | 57 | 63 | 0.0 | 2.0 | 0.00 | 0.02 | 0.00 | 67 | 1014.2 |
| 20260508084536 | 55 | 256 | 0.0 | 6.0 | 0.00 | 0.02 | 0.00 | 74 | 1014.4 |
| 20260508083019 | 54 | 311 | 0.0 | 2.0 | 0.00 | 0.02 | 0.00 | 75 | 1014.5 |
| 20260508081611 | 53 | 282 | 0.0 | 4.0 | 0.00 | 0.02 | 0.00 | 77 | 1014.5 |
| 20260508080033 | 52 | 277 | 0.0 | 3.0 | 0.00 | 0.02 | 0.00 | 75 | 1014.6 |
| 20260508074614 | 53 | 326 | 0.0 | 2.0 | 0.00 | 0.02 | 0.00 | 76 | 1014.7 |
| 20260508073025 | 52 | 314 | 0.0 | 2.0 | 0.00 | 0.02 | 0.00 | 78 | 1014.9 |
| 20260508071618 | 51 | 74 | 0.0 | 1.0 | 0.00 | 0.02 | 0.00 | 82 | 1014.9 |
| 20260508070030 | 50 | 111 | 0.0 | 1.0 | 0.00 | 0.02 | 0.00 | 84 | 1014.8 |
| 20260508064629 | 49 | 322 | 0.0 | 1.0 | 0.00 | 0.02 | 0.00 | 86 | 1015.0 |
| 20260508063042 | 48 | 73 | 0.0 | 1.0 | 0.00 | 0.02 | 0.00 | 88 | 1015.1 |
| 20260508061635 | 48 | 78 | 0.0 | 1.0 | 0.00 | 0.02 | 0.00 | 89 | 1014.9 |
| 20260508060051 | 47 | 77 | 0.0 | 2.0 | 0.00 | 0.02 | 0.00 | 91 | 1014.8 |
| 20260508054502 | 46 | 71 | 0.0 | 2.0 | 0.00 | 0.02 | 0.00 | 92 | 1014.6 |
| 20260508053054 | 46 | 53 | 0.0 | 1.0 | 0.00 | 0.02 | 0.00 | 92 | 1014.7 |
| 20260508051518 | 46 | 67 | 0.0 | 0.0 | 0.00 | 0.02 | 0.00 | 92 | 1014.8 |
| 20260508050110 | 46 | 67 | 0.0 | 0.0 | 0.00 | 0.02 | 0.00 | 92 | 1014.6 |
| 20260508044516 | 45 | 67 | 0.0 | 1.0 | 0.00 | 0.02 | 0.00 | 92 | 1014.6 |
| 20260508043116 | 45 | 65 | 0.0 | 1.0 | 0.00 | 0.02 | 0.00 | 93 | 1014.5 |
| 20260508041538 | 45 | 65 | 0.0 | 1.0 | 0.00 | 0.02 | 0.00 | 94 | 1014.5 |
| 20260508040127 | 45 | 234 | 0.0 | 0.0 | 0.00 | 0.02 | 0.00 | 95 | 1014.3 |
| 20260508034546 | 45 | 234 | 0.0 | 0.0 | 0.00 | 0.02 | 0.00 | 95 | 1014.2 |
| 20260508033135 | 45 | 234 | 0.0 | 0.0 | 0.00 | 0.02 | 0.00 | 95 | 1014.2 |
| 20260508031556 | 45 | 234 | 0.0 | 0.0 | 0.00 | 0.02 | 0.00 | 95 | 1014.2 |
| 20260508030021 | 45 | 234 | 0.0 | 0.0 | 0.00 | 0.02 | 0.00 | 95 | 1014.2 |
| 20260508024608 | 45 | 234 | 0.0 | 0.0 | 0.00 | 0.02 | 0.00 | 95 | 1014.2 |
| 20260508023029 | 45 | 234 | 0.0 | 0.0 | 0.00 | 0.02 | 0.00 | 95 | 1014.2 |
| 20260508021624 | 44 | 234 | 0.0 | 0.0 | 0.00 | 0.02 | 0.00 | 95 | 1014.4 |
| 20260508020040 | 44 | 234 | 0.0 | 0.0 | 0.00 | 0.02 | 0.00 | 95 | 1014.4 |
| 20260508014626 | 44 | 234 | 0.0 | 0.0 | 0.00 | 0.02 | 0.00 | 95 | 1014.4 |
| 20260508013051 | 44 | 234 | 0.0 | 0.0 | 0.00 | 0.02 | 0.00 | 95 | 1014.6 |
| 20260508011516 | 45 | 234 | 0.0 | 0.0 | 0.00 | 0.02 | 0.00 | 95 | 1014.7 |
| 20260508010107 | 45 | 234 | 0.0 | 0.0 | 0.00 | 0.02 | 0.00 | 95 | 1014.6 |
| 20260508004535 | 45 | 234 | 0.0 | 0.0 | 0.00 | 0.02 | 0.00 | 94 | 1014.6 |
| 20260508003126 | 45 | 234 | 0.0 | 0.0 | 0.00 | 0.02 | 0.00 | 94 | 1014.6 |
| 20260508001541 | 45 | 233 | 0.0 | 0.0 | 0.00 | 0.02 | 0.00 | 95 | 1014.6 |
| 20260508000001 | 45 | 239 | 0.0 | 0.0 | 0.00 | 0.02 | 0.00 | 95 | 1014.8 |
| 20260507234552 | 45 | 239 | 0.0 | 0.0 | 0.00 | 0.02 | 0.00 | 95 | 1015.0 |
| 20260507233022 | 44 | 239 | 0.0 | 0.0 | 0.00 | 0.02 | 0.00 | 95 | 1015.1 |
| 20260507231601 | 44 | 238 | 0.0 | 0.0 | 0.00 | 0.02 | 0.00 | 95 | 1015.1 |
| 20260507230026 | 44 | 236 | 0.0 | 0.0 | 0.00 | 0.02 | 0.00 | 96 | 1015.1 |
| 20260507224616 | 44 | 236 | 0.0 | 1.0 | 0.00 | 0.02 | 0.00 | 95 | 1015.0 |
| 20260507223048 | 44 | 343 | 0.0 | 0.0 | 0.00 | 0.02 | 0.00 | 95 | 1014.9 |
| 20260507221507 | 45 | 10 | 0.0 | 0.0 | 0.00 | 0.02 | 0.00 | 95 | 1014.9 |
| 20260507220053 | 45 | 11 | 0.0 | 0.0 | 0.00 | 0.02 | 0.00 | 95 | 1014.8 |
| 20260507214525 | 45 | 280 | 0.0 | 0.0 | 0.00 | 0.02 | 0.02 | 95 | 1014.8 |